Location: Marengo
(51.4813°N, 109.7825°W)
Time: 23:38:54
(UTC+00:00)

Envisat - Pass Details

Date: 24 January 2022
Orbit: 764 x 765 km, 98.2° (Epoch: 22 May)

Event Time Altitude Azimuth Distance (km) Brightness Sun altitude
Rises 13:50:04 0° 6° (N) 3,244 6.1 -12.0°
Reaches altitude 10° 13:52:47 10° 352° (N) 2,313 5.3 -11.6°
Maximum altitude 13:56:42 23° 302° (WNW) 1,592 4.1 -11.0°
Drops below altitude 10° 14:00:36 10° 251° (WSW) 2,303 5.0 -10.4°
Sets 14:03:18 0° 238° (WSW) 3,225 5.9 -10.0°
